Location: Cabeza Gorda
(40.0667°N, 4.9667°W)
Time: 18:55:32
(UTC+00:00)

Cosmos 1833 Rocket - Pass Details

Date: 15 January 2026
Orbit: 831 x 839 km, 71.0° (Epoch: 11 February)

Event Time Altitude Azimuth Distance (km) Brightness Sun altitude
Exits shadow 05:09:21 47° 9° (N) 1,102 3.2 -28.4°
Maximum altitude 05:10:47 62° 64° (ENE) 934 3.0 -28.1°
Drops below altitude 10° 05:16:19 10° 145° (SE) 2,436 5.6 -27.1°
Sets 05:18:46 0° 149° (SSE) 3,365 6.3 -26.6°
